When you browse on this site, cookies collect data to enhance your experience and personalize the content and advertising you see.
Visit our Privacy Policy to learn more. By continuing to use the site, you agree to this use of cookies and data.
  • In Hungary
  • List of Countries
  • For 7 days
  • Water Temperature
  • Satellite Maps
  • Weather Map
  • News
  • Weather Widgets
  • user-avatar
    Login

    Hourly Weather Miyadzaki

    Today, 21 November, Wednesday

    Time Temperature Precipitation Wind Pressure Humidity
    00:00 +9°C° 0 mm 2 mps 759 mmHg 75%
    01:00 +9°C° 0 mm 3 mps 759 mmHg 76%
    02:00 +9°C° 0 mm 3 mps 758 mmHg 78%
    03:00 +9°C° 0 mm 3 mps 758 mmHg 81%
    04:00 +9°C° 0 mm 3 mps 758 mmHg 82%
    05:00 +10°C° 0 mm 3 mps 758 mmHg 84%
    06:00 +10°C° 0 mm 4 mps 758 mmHg 85%
    07:00 +11°C° 0 mm 3 mps 758 mmHg 81%
    08:00 +13°C° 0 mm 3 mps 758 mmHg 76%
    09:00 +13°C° 0 mm 3 mps 758 mmHg 72%
    10:00 +14°C° 0 mm 3 mps 758 mmHg 69%
    11:00 +17°C° 0 mm 3 mps 758 mmHg 65%
    12:00 +18°C° 0 mm 3 mps 757 mmHg 62%
    13:00 +18°C° 0 mm 3 mps 757 mmHg 64%
    14:00 +18°C° 0 mm 3 mps 756 mmHg 66%
    15:00 +17°C° 0 mm 3 mps 755 mmHg 68%
    16:00 +16°C° 0 mm 3 mps 755 mmHg 74%
    17:00 +14°C° 0 mm 3 mps 755 mmHg 79%
    18:00 +14°C° 0 mm 3 mps 755 mmHg 84%
    19:00 +14°C° 1.2 mm 3 mps 754 mmHg 88%
    20:00 +14°C° 1.2 mm 3 mps 754 mmHg 91%
    21:00 +13°C° 1.2 mm 3 mps 754 mmHg 95%
    22:00 +14°C° 2.5 mm 3 mps 754 mmHg 95%
    23:00 +14°C° 2.5 mm 3 mps 753 mmHg 96%

    Tomorrow, 22 November, Thursday

    Time Temperature Precipitation Wind Pressure Humidity
    00:00 +14°C° 2.5 mm 3 mps 753 mmHg 97%
    01:00 +14°C° 1.6 mm 3 mps 753 mmHg 97%
    02:00 +14°C° 1.6 mm 3 mps 752 mmHg 97%
    03:00 +14°C° 1.6 mm 4 mps 751 mmHg 97%
    04:00 +14°C° 0.9 mm 4 mps 752 mmHg 97%
    05:00 +14°C° 0.9 mm 4 mps 752 mmHg 97%
    06:00 +14°C° 0.9 mm 4 mps 752 mmHg 97%
    07:00 +14°C° 0.3 mm 5 mps 752 mmHg 95%
    08:00 +15°C° 0.3 mm 5 mps 753 mmHg 93%
    09:00 +15°C° 0.3 mm 5 mps 753 mmHg 91%
    10:00 +16°C° 0 mm 5 mps 753 mmHg 82%
    11:00 +17°C° 0 mm 5 mps 754 mmHg 74%
    12:00 +19°C° 0 mm 5 mps 754 mmHg 65%
    13:00 +17°C° 0.1 mm 5 mps 754 mmHg 61%
    14:00 +17°C° 0.1 mm 5 mps 754 mmHg 57%
    15:00 +18°C° 0.1 mm 4 mps 755 mmHg 52%
    16:00 +15°C° 0 mm 4 mps 755 mmHg 58%
    17:00 +13°C° 0 mm 5 mps 756 mmHg 64%
    18:00 +10°C° 0 mm 5 mps 756 mmHg 70%
    19:00 +9°C° 0 mm 5 mps 757 mmHg 72%
    20:00 +8°C° 0 mm 5 mps 758 mmHg 74%
    21:00 +7°C° 0 mm 5 mps 758 mmHg 76%
    22:00 +7°C° 0 mm 5 mps 758 mmHg 76%
    23:00 +6°C° 0 mm 5 mps 759 mmHg 75%

    Day after tomorrow, 23 November, Friday

    Time Temperature Precipitation Wind Pressure Humidity
    00:00 +5°C° 0 mm 4 mps 759 mmHg 75%
    01:00 +5°C° 0 mm 4 mps 759 mmHg 73%
    02:00 +4°C° 0 mm 4 mps 759 mmHg 71%
    03:00 +4°C° 0 mm 4 mps 759 mmHg 70%
    04:00 +4°C° 0 mm 4 mps 759 mmHg 69%
    05:00 +3°C° 0 mm 4 mps 759 mmHg 69%
    06:00 +3°C° 0 mm 4 mps 759 mmHg 68%
    07:00 +5°C° 0 mm 4 mps 760 mmHg 64%
    08:00 +7°C° 0 mm 3 mps 760 mmHg 60%
    09:00 +9°C° 0 mm 3 mps 760 mmHg 56%
    10:00 +11°C° 0 mm 3 mps 760 mmHg 50%
    11:00 +13°C° 0 mm 3 mps 760 mmHg 44%
    12:00 +16°C° 0 mm 2 mps 760 mmHg 38%
    13:00 +16°C° 0 mm 2 mps 759 mmHg 38%
    14:00 +16°C° 0 mm 2 mps 759 mmHg 38%
    15:00 +16°C° 0 mm 2 mps 759 mmHg 38%
    16:00 +14°C° 0 mm 2 mps 759 mmHg 46%
    17:00 +12°C° 0 mm 2 mps 759 mmHg 53%
    18:00 +9°C° 0 mm 2 mps 760 mmHg 61%
    19:00 +8°C° 0 mm 2 mps 760 mmHg 63%
    20:00 +9°C° 0 mm 1 mps 760 mmHg 66%
    21:00 +8°C° 0 mm 1 mps 761 mmHg 68%
    22:00 +7°C° 0 mm 2 mps 761 mmHg 69%
    23:00 +7°C° 0 mm 2 mps 760 mmHg 69%

    24 November, Saturday

    Time Temperature Precipitation Wind Pressure Humidity
    00:00 +6°C° 0 mm 2 mps 760 mmHg 70%
    01:00 +6°C° 0 mm 2 mps 760 mmHg 70%
    02:00 +6°C° 0 mm 2 mps 760 mmHg 70%
    03:00 +6°C° 0 mm 2 mps 760 mmHg 69%
    04:00 +4°C° 0 mm 3 mps 760 mmHg 69%
    05:00 +4°C° 0 mm 3 mps 760 mmHg 69%
    06:00 +4°C° 0 mm 3 mps 761 mmHg 69%
    07:00 +6°C° 0 mm 4 mps 761 mmHg 64%
    08:00 +7°C° 0 mm 4 mps 761 mmHg 59%
    09:00 +10°C° 0 mm 4 mps 761 mmHg 54%
    10:00 +12°C° 0 mm 3 mps 761 mmHg 49%
    11:00 +14°C° 0 mm 3 mps 761 mmHg 44%
    12:00 +17°C° 0 mm 3 mps 761 mmHg 39%
    13:00 +17°C° 0 mm 3 mps 760 mmHg 38%
    14:00 +17°C° 0 mm 3 mps 760 mmHg 36%
    15:00 +17°C° 0 mm 3 mps 760 mmHg 35%
    16:00 +14°C° 0 mm 3 mps 760 mmHg 43%
    17:00 +11°C° 0 mm 3 mps 760 mmHg 52%
    18:00 +9°C° 0 mm 2 mps 760 mmHg 61%
    19:00 +9°C° 0 mm 3 mps 760 mmHg 64%
    20:00 +8°C° 0 mm 3 mps 761 mmHg 68%
    21:00 +8°C° 0 mm 3 mps 761 mmHg 72%
    22:00 +8°C° 0 mm 3 mps 761 mmHg 74%
    23:00 +7°C° 0 mm 3 mps 761 mmHg 75%

    25 November, Sunday

    Time Temperature Precipitation Wind Pressure Humidity
    00:00 +7°C° 0 mm 3 mps 760 mmHg 77%
    01:00 +7°C° 0 mm 2 mps 760 mmHg 78%
    02:00 +7°C° 0 mm 2 mps 760 mmHg 78%
    03:00 +7°C° 0 mm 2 mps 760 mmHg 79%
    04:00 +7°C° 0 mm 2 mps 760 mmHg 78%
    05:00 +7°C° 0 mm 2 mps 760 mmHg 77%
    06:00 +7°C° 0 mm 2 mps 760 mmHg 76%
    07:00 +9°C° 0 mm 2 mps 761 mmHg 69%
    08:00 +12°C° 0 mm 2 mps 761 mmHg 63%
    09:00 +13°C° 0 mm 2 mps 761 mmHg 56%
    10:00 +16°C° 0 mm 2 mps 761 mmHg 49%
    11:00 +19°C° 0 mm 1 mps 761 mmHg 43%
    12:00 +21°C° 0 mm 1 mps 760 mmHg 36%
    13:00 +21°C° 0 mm 1 mps 760 mmHg 37%
    14:00 +20°C° 0 mm 1 mps 760 mmHg 37%
    15:00 +20°C° 0 mm 1 mps 759 mmHg 38%
    16:00 +18°C° 0 mm 1 mps 760 mmHg 46%
    17:00 +15°C° 0 mm 1 mps 760 mmHg 55%
    18:00 +12°C° 0 mm 1 mps 760 mmHg 63%
    19:00 +12°C° 0 mm 1 mps 760 mmHg 67%
    20:00 +12°C° 0 mm 1 mps 760 mmHg 70%
    21:00 +11°C° 0 mm 1 mps 761 mmHg 73%
    22:00 +11°C° 0 mm 1 mps 761 mmHg 74%
    23:00 +11°C° 0 mm 1 mps 760 mmHg 75%

    26 November, Monday

    Time Temperature Precipitation Wind Pressure Humidity
    00:00 +9°C° 0 mm 2 mps 760 mmHg 75%
    01:00 +9°C° 0 mm 2 mps 760 mmHg 74%
    02:00 +9°C° 0 mm 2 mps 760 mmHg 73%
    03:00 +9°C° 0 mm 2 mps 760 mmHg 71%
    04:00 +9°C° 0 mm 2 mps 760 mmHg 69%
    05:00 +9°C° 0 mm 2 mps 761 mmHg 66%
    06:00 +9°C° 0 mm 2 mps 761 mmHg 64%
    07:00 +10°C° 0 mm 2 mps 761 mmHg 60%
    08:00 +13°C° 0 mm 2 mps 761 mmHg 57%
    09:00 +15°C° 0 mm 2 mps 762 mmHg 53%
    10:00 +17°C° 0 mm 2 mps 761 mmHg 50%
    11:00 +18°C° 0 mm 2 mps 761 mmHg 47%
    12:00 +20°C° 0 mm 2 mps 760 mmHg 44%
    13:00 +20°C° 0 mm 2 mps 760 mmHg 46%
    14:00 +19°C° 0 mm 2 mps 760 mmHg 48%
    15:00 +19°C° 0 mm 2 mps 760 mmHg 49%
    16:00 +18°C° 0 mm 2 mps 760 mmHg 57%
    17:00 +16°C° 0 mm 2 mps 760 mmHg 64%
    18:00 +14°C° 0 mm 2 mps 760 mmHg 71%
    19:00 +14°C° 0 mm 2 mps 761 mmHg 73%
    20:00 +14°C° 0 mm 2 mps 761 mmHg 76%
    21:00 +14°C° 0 mm 2 mps 761 mmHg 78%
    22:00 +13°C° 0 mm 2 mps 761 mmHg 81%
    23:00 +13°C° 0 mm 2 mps 761 mmHg 83%
    Show more